Time,TemperatureF,DewpointF,PressureIn,WindDirection,WindDirectionDegrees,WindSpeedMPH,WindSpeedGustMPH,Humidity,HourlyPrecipIn,Conditions,Clouds,dailyrainin,SolarRadiationWatts/m^2,SoftwareType,DateUTC
2014-11-22 00:02:00,41.0,40.0,-100.00,SSW,207,15.0,29.0,98,0.07,,,0.45,0.000000,,2014-11-22 08:02:00,
2014-11-22 00:11:00,41.0,40.0,-100.00,SSW,207,15.0,29.0,98,0.07,,,0.45,0.000000,,2014-11-22 08:11:00,
2014-11-22 00:22:00,41.0,40.0,-100.00,SSW,207,15.0,29.0,98,0.07,,,0.45,0.000000,,2014-11-22 08:22:00,
2014-11-22 00:53:00,41.0,40.0,-100.00,SW,221,14.0,32.0,97,0.10,,,0.55,0.000000,,2014-11-22 08:53:00,
2014-11-22 01:02:00,41.0,40.0,-100.00,SW,221,14.0,32.0,97,0.10,,,0.55,0.000000,,2014-11-22 09:02:00,
2014-11-22 01:12:00,41.0,40.0,-100.00,SW,221,14.0,32.0,97,0.10,,,0.55,0.000000,,2014-11-22 09:12:00,
2014-11-22 01:22:00,41.0,40.0,-100.00,SW,221,14.0,32.0,97,0.10,,,0.55,0.000000,,2014-11-22 09:22:00,
2014-11-22 01:54:00,40.0,39.0,-100.00,SW,230,11.0,21.0,96,0.01,,,0.56,0.000000,,2014-11-22 09:54:00,
2014-11-22 02:03:00,40.0,39.0,-100.00,SW,230,11.0,21.0,96,0.01,,,0.56,0.000000,,2014-11-22 10:03:00,
2014-11-22 02:13:00,40.0,39.0,-100.00,SW,230,11.0,21.0,96,0.01,,,0.56,0.000000,,2014-11-22 10:13:00,
2014-11-22 02:23:00,40.0,39.0,-100.00,SW,230,11.0,21.0,96,0.01,,,0.56,0.000000,,2014-11-22 10:23:00,
2014-11-22 02:53:00,38.0,36.0,-100.00,SW,224,13.0,24.0,94,0.01,,,0.57,0.000000,,2014-11-22 10:53:00,
2014-11-22 03:03:00,38.0,36.0,-100.00,SW,224,13.0,24.0,94,0.01,,,0.57,0.000000,,2014-11-22 11:03:00,
2014-11-22 03:12:00,38.0,36.0,-100.00,SW,224,13.0,24.0,94,0.01,,,0.57,0.000000,,2014-11-22 11:12:00,
2014-11-22 03:22:00,38.0,36.0,-100.00,SW,224,13.0,24.0,94,0.01,,,0.57,0.000000,,2014-11-22 11:22:00,
2014-11-22 03:53:00,37.0,35.0,-100.00,SW,234,13.0,34.0,93,0.00,,,0.57,0.000000,,2014-11-22 11:53:00,
2014-11-22 04:03:00,37.0,35.0,-100.00,SW,234,13.0,34.0,93,0.00,,,0.57,0.000000,,2014-11-22 12:03:00,
2014-11-22 04:13:00,37.0,35.0,-100.00,SW,234,13.0,34.0,93,0.00,,,0.57,0.000000,,2014-11-22 12:13:00,
2014-11-22 04:22:00,37.0,35.0,-100.00,SW,234,13.0,34.0,93,0.00,,,0.57,0.000000,,2014-11-22 12:22:00,
2014-11-22 04:52:00,36.0,35.0,-100.00,WSW,245,6.0,25.0,95,0.00,,,0.57,0.000000,,2014-11-22 12:52:00,
2014-11-22 05:02:00,36.0,35.0,-100.00,WSW,245,6.0,25.0,95,0.00,,,0.57,0.000000,,2014-11-22 13:02:00,
2014-11-22 05:12:00,36.0,35.0,-100.00,WSW,245,6.0,25.0,95,0.00,,,0.57,0.000000,,2014-11-22 13:12:00,
2014-11-22 05:22:00,36.0,35.0,-100.00,WSW,245,6.0,25.0,95,0.00,,,0.57,0.000000,,2014-11-22 13:22:00,
2014-11-22 05:52:00,35.0,34.0,-100.00,SW,231,8.0,20.0,98,0.04,,,0.61,0.000000,,2014-11-22 13:52:00,
2014-11-22 06:02:00,35.0,34.0,-100.00,SW,231,8.0,20.0,98,0.04,,,0.61,0.000000,,2014-11-22 14:02:00,
2014-11-22 06:12:00,35.0,34.0,-100.00,SW,231,8.0,20.0,98,0.04,,,0.61,0.000000,,2014-11-22 14:12:00,
2014-11-22 06:22:00,35.0,34.0,-100.00,SW,231,8.0,20.0,98,0.04,,,0.61,0.000000,,2014-11-22 14:22:00,
2014-11-22 06:52:00,34.0,33.0,-100.00,SW,234,5.0,16.0,96,0.02,,,0.63,0.000000,,2014-11-22 14:52:00,
2014-11-22 07:02:00,34.0,33.0,-100.00,SW,234,5.0,16.0,96,0.02,,,0.63,0.000000,,2014-11-22 15:02:00,
2014-11-22 07:12:00,34.0,33.0,-100.00,SW,234,5.0,16.0,96,0.02,,,0.63,0.000000,,2014-11-22 15:12:00,
2014-11-22 07:22:00,34.0,33.0,-100.00,SW,234,5.0,16.0,96,0.02,,,0.63,0.000000,,2014-11-22 15:22:00,
2014-11-22 07:54:00,34.0,32.0,-100.00,SW,231,11.0,25.0,94,0.00,,,0.63,1.000000,,2014-11-22 15:54:00,
2014-11-22 08:04:00,34.0,32.0,-100.00,SW,231,11.0,25.0,94,0.00,,,0.63,1.000000,,2014-11-22 16:04:00,
2014-11-22 08:13:00,34.0,32.0,-100.00,SW,231,11.0,25.0,94,0.00,,,0.63,1.000000,,2014-11-22 16:13:00,
2014-11-22 08:23:00,34.0,32.0,-100.00,SW,231,11.0,25.0,94,0.00,,,0.63,1.000000,,2014-11-22 16:23:00,
2014-11-22 08:54:00,34.0,32.0,-100.00,SSW,193,5.0,14.0,94,0.00,,,0.63,10.000000,,2014-11-22 16:54:00,
2014-11-22 09:03:00,34.0,32.0,-100.00,SSW,193,5.0,14.0,94,0.00,,,0.63,10.000000,,2014-11-22 17:03:00,
2014-11-22 09:12:00,34.0,32.0,-100.00,SSW,193,5.0,14.0,94,0.00,,,0.63,10.000000,,2014-11-22 17:12:00,
2014-11-22 09:23:00,34.0,32.0,-100.00,SSW,193,5.0,14.0,94,0.00,,,0.63,10.000000,,2014-11-22 17:23:00,
2014-11-22 09:53:00,34.0,33.0,-100.00,SSW,209,9.0,14.0,97,0.01,,,0.64,47.000000,,2014-11-22 17:53:00,
2014-11-22 10:02:00,34.0,33.0,-100.00,SSW,209,9.0,14.0,97,0.01,,,0.64,47.000000,,2014-11-22 18:02:00,
2014-11-22 10:12:00,34.0,33.0,-100.00,SSW,209,9.0,14.0,97,0.01,,,0.64,47.000000,,2014-11-22 18:12:00,
2014-11-22 10:23:00,34.0,33.0,-100.00,SSW,209,9.0,14.0,97,0.01,,,0.64,47.000000,,2014-11-22 18:23:00,
2014-11-22 10:53:00,35.0,34.0,-100.00,SW,215,10.0,18.0,96,0.00,,,0.64,133.000000,,2014-11-22 18:53:00,
2014-11-22 11:03:00,35.0,34.0,-100.00,SW,215,10.0,18.0,96,0.00,,,0.64,133.000000,,2014-11-22 19:03:00,
2014-11-22 11:12:00,35.0,34.0,-100.00,SW,215,10.0,18.0,96,0.00,,,0.64,133.000000,,2014-11-22 19:12:00,
2014-11-22 11:22:00,35.0,34.0,-100.00,SW,215,10.0,18.0,96,0.00,,,0.64,133.000000,,2014-11-22 19:22:00,
2014-11-22 11:52:00,33.0,32.0,-100.00,SW,226,9.0,18.0,97,0.02,,,0.65,94.000000,,2014-11-22 19:52:00,
2014-11-22 12:02:00,33.0,32.0,-100.00,SW,226,9.0,18.0,97,0.02,,,0.65,94.000000,,2014-11-22 20:02:00,
2014-11-22 12:12:00,33.0,32.0,-100.00,SW,226,9.0,18.0,97,0.02,,,0.65,94.000000,,2014-11-22 20:12:00,
2014-11-22 12:22:00,33.0,32.0,-100.00,SW,226,9.0,18.0,97,0.02,,,0.65,94.000000,,2014-11-22 20:22:00,
2014-11-22 12:53:00,36.0,35.0,-100.00,SW,226,8.0,15.0,95,0.04,,,0.68,111.000000,,2014-11-22 20:53:00,
2014-11-22 13:03:00,36.0,35.0,-100.00,SW,226,8.0,15.0,95,0.04,,,0.68,111.000000,,2014-11-22 21:03:00,
2014-11-22 13:12:00,36.0,35.0,-100.00,SW,226,8.0,15.0,95,0.04,,,0.68,111.000000,,2014-11-22 21:12:00,
2014-11-22 13:22:00,36.0,35.0,-100.00,SW,226,8.0,15.0,95,0.04,,,0.68,111.000000,,2014-11-22 21:22:00,
2014-11-22 13:54:00,35.0,33.0,-100.00,SW,232,9.0,19.0,93,0.01,,,0.67,175.000000,,2014-11-22 21:54:00,
2014-11-22 14:03:00,35.0,33.0,-100.00,SW,232,9.0,19.0,93,0.01,,,0.67,175.000000,,2014-11-22 22:03:00,
2014-11-22 14:13:00,35.0,33.0,-100.00,SW,232,9.0,19.0,93,0.01,,,0.67,175.000000,,2014-11-22 22:13:00,
2014-11-22 14:23:00,35.0,33.0,-100.00,SW,232,9.0,19.0,93,0.01,,,0.67,175.000000,,2014-11-22 22:23:00,
2014-11-22 14:53:00,32.0,32.0,-100.00,WSW,242,4.0,19.0,98,0.00,,,0.66,58.000000,,2014-11-22 22:53:00,
2014-11-22 15:03:00,32.0,32.0,-100.00,WSW,242,4.0,19.0,98,0.00,,,0.66,58.000000,,2014-11-22 23:03:00,
2014-11-22 15:12:00,32.0,32.0,-100.00,WSW,242,4.0,19.0,98,0.00,,,0.66,58.000000,,2014-11-22 23:12:00,
2014-11-22 15:22:00,32.0,32.0,-100.00,WSW,242,4.0,19.0,98,0.00,,,0.66,58.000000,,2014-11-22 23:22:00,
2014-11-22 15:53:00,32.0,31.0,-100.00,SW,217,7.0,17.0,96,0.00,,,0.63,23.000000,,2014-11-22 23:53:00,
2014-11-22 16:02:00,32.0,31.0,-100.00,SW,217,7.0,17.0,96,0.00,,,0.63,23.000000,,2014-11-23 00:02:00,
2014-11-22 16:12:00,32.0,31.0,-100.00,SW,217,7.0,17.0,96,0.00,,,0.63,23.000000,,2014-11-23 00:12:00,
2014-11-22 16:22:00,32.0,31.0,-100.00,SW,217,7.0,17.0,96,0.00,,,0.63,23.000000,,2014-11-23 00:22:00,
2014-11-22 16:52:00,31.0,30.0,-100.00,SSW,203,6.0,10.0,96,0.00,,,0.61,7.000000,,2014-11-23 00:52:00,
2014-11-22 17:02:00,31.0,30.0,-100.00,SSW,203,6.0,10.0,96,0.00,,,0.61,7.000000,,2014-11-23 01:02:00,
2014-11-22 17:12:00,31.0,30.0,-100.00,SSW,203,6.0,10.0,96,0.00,,,0.61,7.000000,,2014-11-23 01:12:00,
2014-11-22 17:22:00,31.0,30.0,-100.00,SSW,203,6.0,10.0,96,0.00,,,0.61,7.000000,,2014-11-23 01:22:00,
2014-11-22 17:53:00,30.0,29.0,-100.00,SW,231,4.0,10.0,96,0.00,,,0.60,0.000000,,2014-11-23 01:53:00,
2014-11-22 18:02:00,30.0,29.0,-100.00,SW,231,4.0,10.0,96,0.00,,,0.60,0.000000,,2014-11-23 02:02:00,
2014-11-22 18:11:00,30.0,29.0,-100.00,SW,231,4.0,10.0,96,0.00,,,0.60,0.000000,,2014-11-23 02:11:00,
2014-11-22 18:22:00,30.0,29.0,-100.00,SW,231,4.0,10.0,96,0.00,,,0.60,0.000000,,2014-11-23 02:22:00,